Salt Lake City, UT

12:32 PM MDT on August 25, 2016 (GMT -0600)
Salt Lake City International

Weather History for KSLC - January, 2013

Change the Weather History Date:

Thursday, January 17, 2013

  Actual Average Record
Temperature  
Mean Temperature 13 °F 29 °F  
Max Temperature 23 °F 37 °F 56 °F (1998)
Min Temperature 2 °F 22 °F -9 °F (1930)
Degree Days  
Heating Degree Days 52 36  
Month to date heating degree days 812 612  
Since 1 July heating degree days 2627 2906  
Cooling Degree Days 0 0  
Month to date cooling degree days 0 0  
Year to date cooling degree days 0 0  
Moisture  
Dew Point 8 °F    
Average Humidity 82    
Maximum Humidity 92    
Minimum Humidity 71    
Precipitation  
Precipitation T in 0.04 in 0.73 in (1996)
Month to date precipitation 0.59 0.71  
Year to date precipitation 0.59 0.71  
Snow  
Snow T in 0.40 in 10.00 in (1996)
Month to date snowfall 10.4 7.3  
Since 1 July snowfall 39.0 29.5  
Snow Depth 4.00 in    
Sea Level Pressure  
Sea Level Pressure 30.72 in    
Wind  
Wind Speed 4 mph (NW)    
Max Wind Speed 10 mph    
Max Gust Speed 11 mph    
Visibility 4 miles    
Events Snow    
T = Trace of Precipitation, MM = Missing Value Source: NWS Daily Summary

Daily Weather History Graph

Daily Weather History Graph

Search for Another Location

Airport or City:

Trip Planner

Search our weather history database for the weather conditions in past years. The results will help you decide how hot, cold, wet, or windy it might be!

Date:

Astronomy

Jan. 17, 2013 Rise Set
Actual Time 7:48 AM MST 5:27 PM MST
Civil Twilight 7:18 AM MST 5:57 PM MST
Nautical Twilight 6:45 AM MST 6:31 PM MST
Astronomical Twilight 6:12 AM MST 7:04 PM MST
Moon 10:55 AM MST (1/17) No Moon Set
Length of Visible Light 10h 38m
Length of Day
9h 38m
Waxing Crescent, 38% of the Moon is Illuminated
Jan 17
Waxing Crescent
Jan 18
First Quarter
Jan 26
Full
Feb 3
Last Quarter
Feb 10
New

Hourly Weather History & Observations

Time (MST) Temp. Windchill Dew Point Humidity Pressure Visibility Wind Dir Wind Speed Gust Speed Precip Events Conditions
12:53 AM 12.0 °F 5.9 °F 9.0 °F 88% 30.76 in 6.0 mi WSW 3.5 mph - N/A   Partly Cloudy
1:53 AM 9.0 °F - 3.9 °F 80% 30.76 in 6.0 mi Calm Calm - N/A   Haze
2:53 AM 9.0 °F - 5.0 °F 84% 30.76 in 6.0 mi Calm Calm - N/A   Scattered Clouds
3:53 AM 3.9 °F - -0.0 °F 84% 30.79 in 6.0 mi Calm Calm - N/A   Scattered Clouds
4:53 AM 5.0 °F - 1.9 °F 87% 30.78 in 6.0 mi Calm Calm - N/A   Partly Cloudy
5:15 AM 7.0 °F - 3.9 °F 87% 30.61 in 1.0 mi Calm Calm - N/A   Scattered Clouds
5:44 AM 6.1 °F - 1.9 °F 83% 30.61 in 4.0 mi Calm Calm - N/A   Partly Cloudy
5:53 AM 6.1 °F - 1.9 °F 83% 30.79 in 4.0 mi Calm Calm - N/A   Mostly Cloudy
6:38 AM 3.0 °F - -2.0 °F 80% 30.61 in 6.0 mi Calm Calm - N/A   Haze
6:53 AM 3.9 °F - -0.0 °F 84% 30.81 in 6.0 mi Calm Calm - N/A   Scattered Clouds
6:56 AM 3.9 °F - -0.0 °F 84% 30.62 in 6.0 mi Calm Calm - N/A   Mostly Cloudy
7:19 AM 1.9 °F - -2.9 °F 80% 30.62 in 5.0 mi Calm Calm - N/A   Haze
7:53 AM 3.0 °F -4.4 °F -2.0 °F 80% 30.83 in 5.0 mi SE 3.5 mph - N/A   Haze
8:21 AM 9.0 °F 0.6 °F 6.1 °F 88% 30.63 in 6.0 mi SE 4.6 mph - N/A   Mostly Cloudy
8:53 AM 10.0 °F 3.6 °F 6.1 °F 84% 30.82 in 3.0 mi SE 3.5 mph - N/A   Overcast
9:53 AM 10.9 °F - 6.1 °F 81% 30.83 in 3.0 mi Calm Calm - N/A   Haze
10:15 AM 14.0 °F - 10.9 °F 88% 30.65 in 3.0 mi Calm Calm - N/A   Scattered Clouds
10:53 AM 17.1 °F - 12.9 °F 84% 30.80 in 3.0 mi Calm Calm - N/A   Scattered Clouds
11:53 AM 19.9 °F 11.1 °F 14.0 °F 78% 30.77 in 3.0 mi North 6.9 mph - N/A   Haze
12:53 PM 21.0 °F 11.4 °F 14.0 °F 74% 30.74 in 3.0 mi North 8.1 mph - N/A   Haze
1:53 PM 21.0 °F 11.4 °F 15.1 °F 78% 30.73 in 3.0 mi North 8.1 mph - N/A   Haze
2:53 PM 23.0 °F 15.8 °F 15.1 °F 72% 30.70 in 3.0 mi North 5.8 mph - N/A   Haze
3:53 PM 21.0 °F 12.4 °F 14.0 °F 74% 30.71 in 3.0 mi North 6.9 mph - N/A   Haze
4:53 PM 19.9 °F 12.1 °F 12.9 °F 74% 30.71 in 3.0 mi WNW 5.8 mph - N/A   Haze
5:53 PM 12.9 °F 1.6 °F 10.0 °F 88% 30.74 in 3.0 mi North 8.1 mph - N/A   Scattered Clouds
6:53 PM 10.9 °F 1.4 °F 9.0 °F 92% 30.75 in 3.0 mi North 5.8 mph - N/A   Scattered Clouds
7:53 PM 12.0 °F 4.1 °F 9.0 °F 88% 30.75 in 4.0 mi NNW 4.6 mph - N/A   Scattered Clouds
8:09 PM 10.9 °F 4.7 °F 7.0 °F 84% 30.54 in 4.0 mi NNW 3.5 mph - N/A   Mostly Cloudy
8:53 PM 14.0 °F 5.1 °F 10.9 °F 88% 30.72 in 4.0 mi WNW 5.8 mph - N/A   Mostly Cloudy
9:53 PM 16.0 °F 10.4 °F 12.0 °F 84% 30.72 in 3.0 mi NW 3.5 mph - 0.00 in Snow Light Snow
10:53 PM 16.0 °F 8.8 °F 12.9 °F 88% 30.69 in 3.0 mi SW 4.6 mph - 0.00 in   Overcast
11:12 PM 16.0 °F 10.4 °F 12.9 °F 88% 30.54 in 2.0 mi SW 3.5 mph - 0.00 in Snow Light Snow
11:53 PM 15.1 °F 9.4 °F 12.0 °F 88% 30.68 in 2.5 mi West 3.5 mph - 0.00 in Snow Light Snow